EW0401 Weather Reports


time (UTC)temp
C
wind
direction
speed
KPH
gust
KPH
rain 1hr
cm
rain 24hr
cm
rain mn
cm
humidity
%
barometer
mb
20260503220057 26 0 0.0 4.8 0.00 0.00 0.00 47 1019.9
20260503214550 26 0 0.0 4.8 0.00 0.00 0.00 46 1020.1
20260503213053 26 0 0.0 6.4 0.00 0.00 0.00 45 1020.2
20260503211551 26 0 0.0 4.8 0.00 0.00 0.00 48 1020.4
20260503210052 26 0 1.6 9.7 0.00 0.00 0.00 46 1020.5
20260503204554 26 213 0.0 8.0 0.00 0.00 0.00 48 1020.7
20260503203052 26 0 0.0 6.4 0.00 0.00 0.00 46 1020.9
20260503201552 26 167 0.0 3.2 0.00 0.00 0.00 48 1021.2
20260503200051 26 208 0.0 6.4 0.00 0.00 0.00 45 1021.3
20260503194554 26 211 0.0 8.0 0.00 0.00 0.00 46 1021.6
20260503193052 26 0 0.0 6.4 0.00 0.00 0.00 46 1021.7
20260503191551 26 0 0.0 3.2 0.00 0.00 0.00 44 1022.0
20260503190052 25 0 0.0 9.7 0.00 0.00 0.00 47 1022.2
20260503184605 25 0 1.6 6.4 0.00 0.00 0.00 45 1022.3
20260503183055 26 0 0.0 4.8 0.00 0.00 0.00 46 1022.5
20260503181556 26 0 0.0 6.4 0.00 0.00 0.00 45 1022.7
20260503180056 25 0 0.0 4.8 0.00 0.00 0.00 44 1022.9
20260503174554 25 0 0.0 6.4 0.00 0.00 0.00 47 1023.2
20260503173058 25 0 0.0 3.2 0.00 0.00 0.00 46 1023.4
20260503171610 25 128 0.0 3.2 0.00 0.00 0.00 44 1023.5
20260503170105 25 122 0.0 6.4 0.00 0.00 0.00 44 1023.6
20260503081552 12 0 0.0 0.0 0.00 0.00 0.00 88 1021.4
20260503080107 12 0 0.0 0.0 0.00 0.00 0.00 88 1021.4
20260503071606 12 0 0.0 0.0 0.00 0.00 0.00 88 1021.4
20260503054600 13 0 0.0 0.0 0.00 0.00 0.00 87 1021.4
20260503053052 13 0 0.0 0.0 0.00 0.00 0.00 86 1021.4
20260503051553 13 0 0.0 0.0 0.00 0.00 0.00 86 1021.3
20260503050055 13 0 0.0 0.0 0.00 0.00 0.00 86 1021.1
20260503044557 13 0 0.0 0.0 0.00 0.00 0.00 85 1020.9
20260503043051 14 0 0.0 0.0 0.00 0.00 0.00 85 1021.2
20260503041553 14 0 0.0 0.0 0.00 0.00 0.00 84 1021.1
20260503040055 15 0 0.0 0.0 0.00 0.00 0.00 84 1021.1
20260503034551 15 0 0.0 0.0 0.00 0.05 0.00 83 1020.8
20260503033052 15 0 0.0 0.0 0.00 0.05 0.00 82 1020.7
20260503031553 16 0 0.0 0.0 0.00 0.05 0.00 81 1020.9
20260503030056 16 0 0.0 0.0 0.00 0.05 0.00 79 1020.8
20260503024551 16 0 0.0 0.0 0.00 0.15 0.00 77 1020.6
20260503023101 16 0 0.0 0.0 0.00 0.15 0.00 76 1020.5
20260503021557 17 0 0.0 0.0 0.00 0.15 0.00 73 1020.4
20260503020054 17 0 0.0 0.0 0.00 0.15 0.00 70 1020.1
20260503014555 18 0 0.0 0.0 0.00 0.18 0.00 66 1019.8
20260503013056 19 0 0.0 0.0 0.00 0.18 0.00 63 1019.8
20260503011620 20 0 0.0 0.0 0.00 0.18 0.00 61 1019.7
20260503010057 21 0 0.0 0.0 0.00 0.18 0.00 58 1019.4
20260503004618 22 0 0.0 0.0 0.00 0.48 0.00 55 1019.2
20260503003056 22 0 0.0 3.2 0.00 0.48 0.00 53 1019.1
20260503001555 23 0 0.0 3.2 0.00 0.48 0.00 52 1018.9
20260503000104 23 325 0.0 4.8 0.00 0.48 0.00 50 1018.8
20260502234602 23 309 0.0 9.7 0.00 0.53 0.00 49 1018.7
20260502233055 23 0 1.6 16.1 0.00 0.53 0.00 48 1018.7
20260502231552 23 0 0.0 6.4 0.00 0.53 0.00 48 1018.6
20260502230056 24 0 0.0 4.8 0.00 0.53 0.00 48 1018.5
20260502224552 24 84 1.6 8.0 0.00 0.89 0.00 46 1018.5
20260502223053 24 0 0.0 4.8 0.00 0.89 0.00 47 1018.6
20260502221609 24 0 0.0 6.4 0.00 0.89 0.00 46 1018.6